DeGray Lake Weather Center

Moon Phase Calendar



DeGray Lake Water Level
Online Cameras

 


      

Current Conditions in Arkadelphia
7/28/2021 7:06:45 PM

93°F
Feels Like 100
Clear
Humidity
48%
Pressure
29.94"
Wind
5.9 mph (ENE)
Dew Point
70°F
UV Index
0/10 (Low)
Visibility
6 mi

Hourly Forecast

Date & Time Wed, Jul 28
7:00 PM
Wed, Jul 28
8:00 PM
Wed, Jul 28
9:00 PM
Wed, Jul 28
10:00 PM
Wed, Jul 28
11:00 PM
Thu, Jul 29
12:00 AM
Thu, Jul 29
1:00 AM
Thu, Jul 29
2:00 AM
Thu, Jul 29
3:00 AM
Thu, Jul 29
4:00 AM
Thu, Jul 29
5:00 AM
Thu, Jul 29
6:00 AM
Thu, Jul 29
7:00 AM
Thu, Jul 29
8:00 AM
Thu, Jul 29
9:00 AM
Thu, Jul 29
10:00 AM
Thu, Jul 29
11:00 AM
Thu, Jul 29
12:00 PM
Thu, Jul 29
1:00 PM
Thu, Jul 29
2:00 PM
Thu, Jul 29
3:00 PM
Thu, Jul 29
4:00 PM
Thu, Jul 29
5:00 PM
Thu, Jul 29
6:00 PM
Thu, Jul 29
7:00 PM
Thu, Jul 29
8:00 PM
Thu, Jul 29
9:00 PM
Thu, Jul 29
10:00 PM
Thu, Jul 29
11:00 PM
Fri, Jul 30
12:00 AM
Fri, Jul 30
1:00 AM
Fri, Jul 30
2:00 AM
Fri, Jul 30
3:00 AM
Fri, Jul 30
4:00 AM
Fri, Jul 30
5:00 AM
Fri, Jul 30
6:00 AM
Fri, Jul 30
7:00 AM
Fri, Jul 30
8:00 AM
Fri, Jul 30
9:00 AM
Fri, Jul 30
10:00 AM
Fri, Jul 30
11:00 AM
Fri, Jul 30
12:00 PM
Fri, Jul 30
1:00 PM
Fri, Jul 30
2:00 PM
Fri, Jul 30
3:00 PM
Fri, Jul 30
4:00 PM
Fri, Jul 30
5:00 PM
Fri, Jul 30
6:00 PM
Condition
Clear

Clear

Clear

Clear

Clear

Clear

Clear

Clear

Clear

Clear

Clear

Clear

Clouds

Clouds

Clouds

Clouds

Clouds

Clouds

Clouds

Clear

Clear

Clear

Clear

Clear

Clear

Clear

Clear

Clear

Clear

Clear

Clear

Clear

Clear

Clear

Clear

Clear

Clear

Clear

Clear

Clear

Clear

Clear

Clear

Clear

Clear

Clear

Clear

Clear
Temperature 93°F91°F88°F84°F80°F76°F75°F75°F74°F74°F73°F73°F74°F79°F84°F89°F93°F97°F99°F100°F100°F100°F99°F98°F92°F86°F84°F82°F80°F79°F77°F76°F76°F75°F75°F75°F75°F80°F85°F90°F95°F99°F102°F104°F103°F102°F102°F100°F
Feels Like 100°F97°F93°F89°F83°F77°F76°F76°F75°F75°F74°F74°F75°F80°F89°F96°F101°F105°F105°F104°F103°F102°F100°F100°F97°F89°F85°F84°F80°F79°F78°F77°F77°F76°F76°F75°F76°F80°F89°F96°F100°F105°F108°F107°F106°F104°F103°F102°F
Cloudiness 6%6%4%4%2%1%1%0%1%2%3%4%11%60%33%24%19%16%14%6%6%6%6%6%6%0%0%0%0%0%0%1%4%4%4%5%5%5%3%2%2%1%1%0%0%0%0%5%
Visibility 6 mi6 mi6 mi6 mi6 mi6 mi6 mi6 mi6 mi6 mi6 mi6 mi6 mi6 mi6 mi6 mi6 mi6 mi6 mi6 mi6 mi6 mi6 mi6 mi6 mi6 mi6 mi6 mi6 mi6 mi6 mi6 mi6 mi6 mi6 mi6 mi6 mi6 mi6 mi6 mi6 mi6 mi6 mi6 mi6 mi6 mi6 mi6 mi
Precipitation 0%0%0%0%0%0%0%0%0%0%0%0%0%0%0%0%0%0%0%0%0%0%0%0%0%0%0%0%0%0%0%0%0%0%0%0%0%0%0%0%0%0%0%0%0%0%0%0%
Humidity 48%51%56%63%69%75%76%78%79%81%82%83%83%75%66%57%50%44%37%33%30%29%29%32%46%54%52%55%65%71%75%78%78%78%76%76%78%70%59%51%43%37%32%28%27%26%26%29%
Dew Point 70°F71°F70°F70°F69°F67°F67°F67°F67°F67°F67°F67°F69°F70°F71°F72°F72°F71°F68°F66°F64°F63°F62°F63°F69°F67°F64°F64°F66°F68°F69°F69°F68°F68°F67°F66°F68°F69°F69°F70°F69°F69°F67°F65°F63°F61°F61°F63°F
Pressure 29.94"29.94"29.94"29.97"30"30"30"29.97"29.97"30"30"30.03"30.03"30.06"30.06"30.06"30.06"30.03"30.03"30"29.97"29.97"29.94"29.94"29.94"29.94"29.97"30"30"30"30"30"30"30"30.03"30.03"30.03"30.06"30.06"30.06"30.06"30.06"30.03"30"29.97"29.97"29.97"29.94"
Wind Speed 5.9 mph5.2 mph5 mph4.6 mph3.4 mph2.5 mph2 mph1.7 mph0.9 mph1.7 mph2 mph1.7 mph1.4 mph0.3 mph0.9 mph1 mph1.1 mph1.4 mph2.1 mph2.8 mph3.5 mph4 mph4.5 mph4.8 mph3.7 mph3 mph2.5 mph4.4 mph4.2 mph4 mph3.7 mph3 mph3.2 mph3.6 mph3.8 mph3.7 mph3.6 mph3.2 mph3.5 mph3.6 mph3.3 mph2.3 mph0.6 mph1.7 mph3.1 mph3.9 mph4.7 mph5 mph
Wind
Direction
77°
ENE
81°
E
85°
E
95°
E
108°
ESE
124°
SE
80°
E
72°
ENE
40°
NE
21°
NNE
15°
NNE
42°
NE
57°
ENE
171°
S
187°
S
190°
S
172°
S
165°
SSE
166°
SSE
148°
SSE
139°
SE
133°
SE
125°
SE
121°
ESE
115°
ESE
116°
ESE
101°
E
103°
ESE
130°
SE
162°
SSE
170°
S
214°
SW
242°
WSW
260°
W
275°
W
276°
W
278°
W
279°
W
281°
W
284°
WNW
283°
WNW
295°
WNW
331°
NNW
97°
E
110°
ESE
118°
ESE
122°
ESE
129°
SE

Daily Forecast

Date High Low Precip. Humidity
Today
Jul 28

Rain
98 °F
73 °F
100%
40%
Thursday
Jul 29

Clouds
100 °F
73 °F
0%
37%
Friday
Jul 30

Clear
102 °F
75 °F
0%
32%
Saturday
Jul 31

Rain
101 °F
75 °F
38%
33%
Sunday
Aug 1

Rain
96 °F
74 °F
100%
42%
Monday
Aug 2

Rain
84 °F
71 °F
100%
74%
Tuesday
Aug 3

Clear
89 °F
66 °F
26%
38%
Wednesday
Aug 4

Clear
88 °F
67 °F
0%
42%
Thursday
Aug 5

Clouds
91 °F
65 °F
0%
41%
Friday
Aug 6

Rain
93 °F
67 °F
32%
40%
Saturday
Aug 7

Rain
90 °F
68 °F
58%
46%
Sunday
Aug 8

Rain
78 °F
70 °F
100%
95%
Monday
Aug 9

Rain
95 °F
70 °F
82%
53%
Tuesday
Aug 10

Rain
99 °F
70 °F
100%
44%
Wednesday
Aug 11

Rain
92 °F
70 °F
89%
64%
Thursday
Aug 12

Rain
94 °F
70 °F
83%
51%

Temperature 8-14 Day Outlook



Precipitation 8-14 Day Outlook




Quick Links
DeGray Lake News
DeGray Lake Photos
DeGray Lake Videos




About Us
Contact Us
Site Map
Search Site
Advertise With Us
   
DeGray.LakesOnline.com
THE DEGRAY LAKE WEBSITE

Copyright 2021, Lakes Online
Privacy    |    Legal